STARLINK-31907, 59797

Orbit data source: Space-Track

STARLINK-31907, 59797 is a payload satellite owned by SpaceX/Seattle (US) in LEO that was launched on Sat, 18 May 2024 UTC via an FALCON 9 launch vehicle from the Air Force Eastern Test Range (AFETR). Payload-class satellites include a variety of spacecraft equipped with specific instruments for various scientific and technological missions. These include communications satellites like Starlink; space stations such as the ISS; scientific satellites like the Hubble; Earth observation satellites from companies like Planet Labs, Umbra, and HawkEye 360; GPS; miniature CubeSats for education and research; and military/defense satellites.

Loading next visibility...
Identifier
59797, 2024-093R
Orbit
LEO
Country
Flag of USUS
Related business
Manufacturer
SpaceX/Seattle
Mission
Operational Commercial Communications
Bus & Motor
STARLINK V2M, Unknown motor
Mass
730 kg wet, ~700 kg dry
Launch date (UTC)
2024-05-18 (2 years ago)
Launch vehicle
FALCON 9
Launch site
Air Force Eastern Test Range (AFETR)
Object type
Payload
Rocket body
Debris
Shape & HBR
Box + 2 Pan, 17.7 m
Radar Cross Section
33.884 m², Large (>1 m²)

Expand to show TLE details & history
Last TLE update: 22 hours ago

TLE from 22 hours ago
0 STARLINK-31907
1 59797U 24093R   25340.37454799 -.00003932  00000-0 -13341-3 0  9991
2 59797  43.0043  15.9282 0001274 273.1310  86.9396 15.27583609 88420
Epoch: 2025-12-06T08:59Z
TLE epoch observation values (Epoch: 2025-12-06T08:59:20.946Z)
Latitude
-0.00001°
Longitude
165.68772°
Altitude
482.768 km
Speed
7.626 km/s
True Right ascension
01h 03m 42s
True Declination
0° 00' 00"
Sunlit
Object was in full shadow at epoch
Visualization orbit readout
Latitude
Unknown
Longitude
Unknown
Altitude
Unknown
Speed
Unknown
Apparent Right ascension
Unknown
Apparent Declination
Unknown
Sunlit
N/A
Visualization observer readout
Local Sidereal Time
05:26:45
Azimuth
Unknown
Elevation
Unknown
Doppler factor
Unknown
Orbital elements
Apogee altitude
485.857 km
Perigee altitude
484.108 km
Semi-major axis
6,863.12 km
Eccentricity
0.00013
Inclination
43.0043°
RAAN
15.9282°
Arg. of periapsis
273.131°
True anomaly
86.95418°
Mean anomaly
86.9396°
Eccentric anomaly
86.94689°
Mean motion
3.81734 °/min
Orbital period
94.31 mins
BSTAR
-0.00013341
Loading maneuver chart data...
Computing Atmospheric mass density...
Loading historical data...
Loading historical data...
Loading historical data...
Loading historical data...
Loading historical data...
Loading historical data...
Loading historical data...

Documentation

Showing up to 5 results
|